When you browse on this site, cookies collect data to enhance your experience and personalize the content and advertising you see.
Visit our Privacy Policy to learn more. By continuing to use the site, you agree to this use of cookies and data.

Stündliche Wetter Brisbane

Heute, 7 Juli, Dienstag

Zeit Temperatur Niederschläge Wind Luftdruck Luftfeuchtigkeit
00:00 +13°C° 0 mm 2 m/S 767 mmHg 79%
01:00 +12°C° 0 mm 2 m/S 767 mmHg 80%
02:00 +12°C° 0 mm 2 m/S 767 mmHg 80%
03:00 +10°C° 0 mm 2 m/S 767 mmHg 80%
04:00 +10°C° 0 mm 2 m/S 767 mmHg 76%
05:00 +10°C° 0 mm 2 m/S 767 mmHg 76%
06:00 +10°C° 0 mm 2 m/S 767 mmHg 76%
07:00 +10°C° 0 mm 2 m/S 768 mmHg 76%
08:00 +13°C° 0 mm 2 m/S 768 mmHg 69%
09:00 +15°C° 0 mm 2 m/S 768 mmHg 62%
10:00 +18°C° 0 mm 2 m/S 768 mmHg 49%
11:00 +19°C° 0 mm 2 m/S 767 mmHg 44%
12:00 +21°C° 0 mm 2 m/S 767 mmHg 40%
13:00 +23°C° 0 mm 2 m/S 766 mmHg 35%
14:00 +23°C° 0 mm 2 m/S 766 mmHg 39%
15:00 +21°C° 0 mm 3 m/S 766 mmHg 44%
16:00 +21°C° 0 mm 3 m/S 766 mmHg 48%
17:00 +19°C° 0 mm 3 m/S 767 mmHg 53%
18:00 +18°C° 0 mm 3 m/S 767 mmHg 59%
19:00 +16°C° 0 mm 3 m/S 768 mmHg 64%
20:00 +16°C° 0 mm 3 m/S 768 mmHg 67%
21:00 +14°C° 0 mm 3 m/S 768 mmHg 71%
22:00 +13°C° 0 mm 3 m/S 768 mmHg 74%
23:00 +13°C° 0 mm 3 m/S 768 mmHg 76%

Morgen, 8 Juli, Mittwoch

Zeit Temperatur Niederschläge Wind Luftdruck Luftfeuchtigkeit
00:00 +12°C° 0 mm 3 m/S 768 mmHg 79%
01:00 +13°C° 0 mm 2 m/S 768 mmHg 81%
02:00 +13°C° 0 mm 2 m/S 768 mmHg 83%
03:00 +12°C° 0 mm 2 m/S 767 mmHg 85%
04:00 +12°C° 0 mm 2 m/S 767 mmHg 86%
05:00 +12°C° 0 mm 2 m/S 768 mmHg 87%
06:00 +12°C° 0 mm 2 m/S 768 mmHg 88%
07:00 +10°C° 0 mm 2 m/S 768 mmHg 88%
08:00 +14°C° 0 mm 2 m/S 768 mmHg 79%
09:00 +16°C° 0 mm 2 m/S 768 mmHg 69%
10:00 +18°C° 0 mm 3 m/S 768 mmHg 60%
11:00 +19°C° 0.1 mm 3 m/S 768 mmHg 61%
12:00 +20°C° 0.1 mm 4 m/S 767 mmHg 61%
13:00 +20°C° 0.1 mm 5 m/S 767 mmHg 62%
14:00 +19°C° 0.2 mm 5 m/S 767 mmHg 66%
15:00 +19°C° 0.2 mm 5 m/S 767 mmHg 69%
16:00 +17°C° 0.2 mm 5 m/S 767 mmHg 73%
17:00 +17°C° 0.2 mm 4 m/S 767 mmHg 75%
18:00 +17°C° 0.2 mm 4 m/S 768 mmHg 76%
19:00 +15°C° 0.2 mm 4 m/S 768 mmHg 78%
20:00 +15°C° 0.1 mm 4 m/S 768 mmHg 78%
21:00 +15°C° 0.1 mm 4 m/S 769 mmHg 77%
22:00 +15°C° 0.1 mm 4 m/S 769 mmHg 77%
23:00 +16°C° 0.1 mm 3 m/S 769 mmHg 78%

übermorgen, 9 Juli, Donnerstag

Zeit Temperatur Niederschläge Wind Luftdruck Luftfeuchtigkeit
00:00 +14°C° 0.1 mm 3 m/S 768 mmHg 78%
01:00 +14°C° 0.1 mm 3 m/S 768 mmHg 79%
02:00 +14°C° 0.1 mm 3 m/S 768 mmHg 78%
03:00 +14°C° 0.1 mm 3 m/S 768 mmHg 78%
04:00 +14°C° 0.1 mm 3 m/S 768 mmHg 78%
05:00 +13°C° 0.1 mm 3 m/S 768 mmHg 79%
06:00 +13°C° 0.1 mm 3 m/S 769 mmHg 79%
07:00 +13°C° 0.1 mm 3 m/S 769 mmHg 80%
08:00 +16°C° 0 mm 3 m/S 769 mmHg 72%
09:00 +17°C° 0 mm 4 m/S 769 mmHg 65%
10:00 +19°C° 0 mm 4 m/S 770 mmHg 57%
11:00 +20°C° 0.1 mm 4 m/S 769 mmHg 55%
12:00 +20°C° 0.1 mm 4 m/S 769 mmHg 53%
13:00 +21°C° 0.1 mm 5 m/S 768 mmHg 50%
14:00 +21°C° 0.1 mm 4 m/S 768 mmHg 54%
15:00 +20°C° 0.1 mm 4 m/S 768 mmHg 58%
16:00 +20°C° 0.1 mm 4 m/S 768 mmHg 62%
17:00 +19°C° 0.1 mm 4 m/S 768 mmHg 66%
18:00 +18°C° 0.1 mm 3 m/S 768 mmHg 69%
19:00 +17°C° 0.1 mm 3 m/S 769 mmHg 72%
20:00 +16°C° 0 mm 3 m/S 769 mmHg 74%
21:00 +16°C° 0 mm 3 m/S 769 mmHg 75%
22:00 +15°C° 0 mm 2 m/S 769 mmHg 76%
23:00 +15°C° 0 mm 2 m/S 769 mmHg 79%

10 Juli, Freitag

Zeit Temperatur Niederschläge Wind Luftdruck Luftfeuchtigkeit
00:00 +14°C° 0 mm 2 m/S 769 mmHg 81%
01:00 +14°C° 0 mm 2 m/S 768 mmHg 83%
02:00 +14°C° 0.2 mm 2 m/S 768 mmHg 84%
03:00 +14°C° 0.2 mm 2 m/S 768 mmHg 85%
04:00 +14°C° 0.2 mm 1 m/S 768 mmHg 85%
05:00 +14°C° 0.2 mm 1 m/S 768 mmHg 86%
06:00 +14°C° 0.2 mm 1 m/S 768 mmHg 86%
07:00 +14°C° 0.2 mm 1 m/S 768 mmHg 86%
08:00 +15°C° 0.1 mm 1 m/S 768 mmHg 81%
09:00 +18°C° 0.1 mm 1 m/S 768 mmHg 76%
10:00 +19°C° 0.1 mm 1 m/S 768 mmHg 71%
11:00 +20°C° 0.1 mm 1 m/S 768 mmHg 68%
12:00 +21°C° 0.1 mm 1 m/S 767 mmHg 65%
13:00 +21°C° 0.1 mm 1 m/S 766 mmHg 63%
14:00 +21°C° 0 mm 1 m/S 766 mmHg 61%
15:00 +20°C° 0 mm 2 m/S 766 mmHg 59%
16:00 +20°C° 0 mm 2 m/S 765 mmHg 57%
17:00 +19°C° 0 mm 2 m/S 766 mmHg 62%
18:00 +19°C° 0 mm 1 m/S 766 mmHg 67%
19:00 +18°C° 0 mm 1 m/S 766 mmHg 72%
20:00 +16°C° 0 mm 1 m/S 766 mmHg 74%
21:00 +16°C° 0 mm 1 m/S 766 mmHg 75%
22:00 +16°C° 0 mm 1 m/S 766 mmHg 77%
23:00 +16°C° 0 mm 1 m/S 766 mmHg 79%

11 Juli, Samstag

Zeit Temperatur Niederschläge Wind Luftdruck Luftfeuchtigkeit
00:00 +16°C° 0 mm 1 m/S 766 mmHg 80%
01:00 +15°C° 0 mm 1 m/S 765 mmHg 82%
02:00 +15°C° 0 mm 1 m/S 765 mmHg 83%
03:00 +15°C° 0 mm 1 m/S 765 mmHg 85%
04:00 +14°C° 0 mm 1 m/S 764 mmHg 86%
05:00 +14°C° 0 mm 1 m/S 764 mmHg 87%
06:00 +14°C° 0 mm 1 m/S 765 mmHg 87%
07:00 +14°C° 0 mm 1 m/S 765 mmHg 87%
08:00 +16°C° 0 mm 1 m/S 765 mmHg 79%
09:00 +19°C° 0 mm 1 m/S 764 mmHg 71%
10:00 +22°C° 0 mm 1 m/S 764 mmHg 63%
11:00 +22°C° 0 mm 1 m/S 764 mmHg 60%
12:00 +23°C° 0 mm 1 m/S 763 mmHg 57%
13:00 +24°C° 0 mm 1 m/S 762 mmHg 54%
14:00 +24°C° 0 mm 1 m/S 762 mmHg 56%
15:00 +24°C° 0 mm 1 m/S 762 mmHg 58%
16:00 +23°C° 0 mm 1 m/S 762 mmHg 60%
17:00 +22°C° 0 mm 1 m/S 762 mmHg 67%
18:00 +20°C° 0 mm 1 m/S 762 mmHg 74%
19:00 +19°C° 0 mm 1 m/S 763 mmHg 81%
20:00 +18°C° 0 mm 1 m/S 763 mmHg 83%
21:00 +18°C° 0 mm 1 m/S 763 mmHg 85%
22:00 +16°C° 0 mm 1 m/S 763 mmHg 86%
23:00 +16°C° 0 mm 1 m/S 763 mmHg 87%

12 Juli, Sonntag

Zeit Temperatur Niederschläge Wind Luftdruck Luftfeuchtigkeit
00:00 +16°C° 0 mm 1 m/S 763 mmHg 87%
01:00 +16°C° 0 mm 1 m/S 762 mmHg 88%
02:00 +15°C° 0 mm 1 m/S 762 mmHg 88%
03:00 +15°C° 0 mm 1 m/S 762 mmHg 89%
04:00 +15°C° 0 mm 1 m/S 762 mmHg 89%
05:00 +15°C° 0 mm 1 m/S 762 mmHg 89%
06:00 +14°C° 0 mm 1 m/S 763 mmHg 89%
07:00 +14°C° 0 mm 1 m/S 763 mmHg 89%
08:00 +16°C° 0 mm 1 m/S 763 mmHg 81%
09:00 +19°C° 0 mm 1 m/S 763 mmHg 73%
10:00 +21°C° 0 mm 1 m/S 763 mmHg 65%
11:00 +23°C° 0 mm 1 m/S 763 mmHg 59%
12:00 +24°C° 0 mm 1 m/S 762 mmHg 53%
13:00 +26°C° 0 mm 1 m/S 761 mmHg 47%
14:00 +25°C° 0.2 mm 2 m/S 761 mmHg 53%
15:00 +24°C° 0.2 mm 2 m/S 761 mmHg 60%
16:00 +23°C° 0.2 mm 2 m/S 761 mmHg 66%
17:00 +21°C° 0.7 mm 2 m/S 761 mmHg 72%
18:00 +19°C° 0.7 mm 2 m/S 762 mmHg 77%
19:00 +18°C° 0.7 mm 2 m/S 762 mmHg 83%
20:00 +18°C° 0.1 mm 2 m/S 763 mmHg 83%
21:00 +18°C° 0.1 mm 2 m/S 763 mmHg 84%
22:00 +17°C° 0.1 mm 2 m/S 763 mmHg 85%
23:00 +17°C° 0 mm 2 m/S 763 mmHg 84%
Mehr zeigen